• In Hungary
  • List of Countries
  • For 7 days
  • Water Temperature
  • Satellite Maps
  • Weather Map
  • News
  • Weather Widgets
  • user-avatar
    Login

    Hourly Weather Uttar Pradesh

    Today, 18 October, Thursday

    Time Temperature Precipitation Wind Pressure Humidity
    00:00 +26°C° 0 mm 2 mps 744 mmHg 53%
    01:00 +26°C° 0 mm 2 mps 744 mmHg 54%
    02:00 +25°C° 0 mm 1 mps 743 mmHg 55%
    03:00 +25°C° 0 mm 1 mps 744 mmHg 55%
    04:00 +25°C° 0 mm 1 mps 744 mmHg 56%
    05:00 +24°C° 0 mm 1 mps 744 mmHg 56%
    06:00 +25°C° 0 mm 1 mps 744 mmHg 53%
    07:00 +27°C° 0 mm 1 mps 745 mmHg 51%
    08:00 +28°C° 0 mm 1 mps 745 mmHg 48%
    09:00 +30°C° 0 mm 1 mps 745 mmHg 43%
    10:00 +32°C° 0 mm 1 mps 745 mmHg 37%
    11:00 +34°C° 0 mm 1 mps 745 mmHg 32%
    12:00 +34°C° 0 mm 1 mps 744 mmHg 29%
    13:00 +35°C° 0 mm 1 mps 744 mmHg 27%
    14:00 +37°C° 0 mm 2 mps 743 mmHg 24%
    15:00 +34°C° 0 mm 1 mps 743 mmHg 27%
    16:00 +33°C° 0 mm 1 mps 743 mmHg 31%
    17:00 +31°C° 0 mm 1 mps 743 mmHg 34%
    18:00 +31°C° 0 mm 1 mps 743 mmHg 35%
    19:00 +30°C° 0 mm 1 mps 744 mmHg 36%
    20:00 +29°C° 0 mm 1 mps 744 mmHg 38%
    21:00 +28°C° 0 mm 1 mps 744 mmHg 40%
    22:00 +27°C° 0 mm 2 mps 744 mmHg 42%
    23:00 +27°C° 0 mm 2 mps 744 mmHg 44%

    Tomorrow, 19 October, Friday

    Time Temperature Precipitation Wind Pressure Humidity
    00:00 +26°C° 0 mm 2 mps 744 mmHg 45%
    01:00 +26°C° 0 mm 2 mps 744 mmHg 47%
    02:00 +25°C° 0 mm 1 mps 744 mmHg 48%
    03:00 +25°C° 0 mm 1 mps 744 mmHg 48%
    04:00 +25°C° 0 mm 1 mps 744 mmHg 48%
    05:00 +24°C° 0 mm 1 mps 744 mmHg 48%
    06:00 +26°C° 0 mm 1 mps 745 mmHg 46%
    07:00 +27°C° 0 mm 1 mps 746 mmHg 44%
    08:00 +28°C° 0 mm 1 mps 746 mmHg 42%
    09:00 +30°C° 0 mm 1 mps 746 mmHg 38%
    10:00 +31°C° 0 mm 1 mps 746 mmHg 34%
    11:00 +34°C° 0 mm 2 mps 746 mmHg 31%
    12:00 +35°C° 0 mm 2 mps 746 mmHg 28%
    13:00 +35°C° 0 mm 2 mps 745 mmHg 26%
    14:00 +36°C° 0 mm 2 mps 744 mmHg 24%
    15:00 +35°C° 0 mm 2 mps 744 mmHg 28%
    16:00 +32°C° 0 mm 2 mps 744 mmHg 32%
    17:00 +30°C° 0 mm 2 mps 744 mmHg 36%
    18:00 +29°C° 0 mm 2 mps 745 mmHg 36%
    19:00 +29°C° 0 mm 1 mps 745 mmHg 37%
    20:00 +28°C° 0 mm 1 mps 746 mmHg 38%
    21:00 +27°C° 0 mm 1 mps 746 mmHg 39%
    22:00 +27°C° 0 mm 1 mps 746 mmHg 40%
    23:00 +26°C° 0 mm 1 mps 746 mmHg 41%

    Day after tomorrow, 20 October, Saturday

    Time Temperature Precipitation Wind Pressure Humidity
    00:00 +26°C° 0 mm 1 mps 746 mmHg 43%
    01:00 +25°C° 0 mm 1 mps 746 mmHg 44%
    02:00 +25°C° 0 mm 1 mps 746 mmHg 45%
    03:00 +24°C° 0 mm 1 mps 746 mmHg 46%
    04:00 +24°C° 0 mm 1 mps 746 mmHg 46%
    05:00 +24°C° 0 mm 1 mps 746 mmHg 47%
    06:00 +25°C° 0 mm 1 mps 747 mmHg 45%
    07:00 +26°C° 0 mm 1 mps 747 mmHg 43%
    08:00 +27°C° 0 mm 1 mps 748 mmHg 41%
    09:00 +29°C° 0 mm 1 mps 748 mmHg 37%
    10:00 +31°C° 0 mm 1 mps 748 mmHg 33%
    11:00 +31°C° 0 mm 0 mps 748 mmHg 28%
    12:00 +34°C° 0 mm 1 mps 747 mmHg 27%
    13:00 +34°C° 0 mm 1 mps 746 mmHg 25%
    14:00 +35°C° 0 mm 1 mps 746 mmHg 23%
    15:00 +33°C° 0 mm 1 mps 745 mmHg 27%
    16:00 +32°C° 0 mm 2 mps 745 mmHg 31%
    17:00 +30°C° 0 mm 2 mps 745 mmHg 34%
    18:00 +30°C° 0 mm 2 mps 746 mmHg 35%
    19:00 +29°C° 0 mm 2 mps 746 mmHg 36%
    20:00 +28°C° 0 mm 2 mps 747 mmHg 36%
    21:00 +27°C° 0 mm 2 mps 747 mmHg 38%
    22:00 +27°C° 0 mm 2 mps 747 mmHg 39%
    23:00 +26°C° 0 mm 2 mps 747 mmHg 41%

    21 October, Sunday

    Time Temperature Precipitation Wind Pressure Humidity
    00:00 +25°C° 0 mm 2 mps 747 mmHg 41%
    01:00 +25°C° 0 mm 2 mps 746 mmHg 42%
    02:00 +24°C° 0 mm 2 mps 746 mmHg 42%
    03:00 +24°C° 0 mm 1 mps 746 mmHg 42%
    04:00 +23°C° 0 mm 1 mps 746 mmHg 41%
    05:00 +23°C° 0 mm 1 mps 747 mmHg 40%
    06:00 +24°C° 0 mm 1 mps 747 mmHg 38%
    07:00 +26°C° 0 mm 1 mps 748 mmHg 36%
    08:00 +27°C° 0 mm 1 mps 749 mmHg 34%
    09:00 +29°C° 0 mm 2 mps 748 mmHg 30%
    10:00 +31°C° 0 mm 2 mps 748 mmHg 27%
    11:00 +34°C° 0 mm 2 mps 748 mmHg 23%
    12:00 +34°C° 0 mm 3 mps 748 mmHg 21%
    13:00 +35°C° 0 mm 4 mps 747 mmHg 20%
    14:00 +36°C° 0 mm 5 mps 746 mmHg 19%
    15:00 +34°C° 0 mm 4 mps 746 mmHg 23%
    16:00 +31°C° 0 mm 3 mps 746 mmHg 27%
    17:00 +29°C° 0 mm 2 mps 746 mmHg 31%
    18:00 +28°C° 0 mm 2 mps 746 mmHg 31%
    19:00 +28°C° 0 mm 2 mps 746 mmHg 31%
    20:00 +27°C° 0 mm 2 mps 747 mmHg 31%
    21:00 +26°C° 0 mm 2 mps 747 mmHg 33%
    22:00 +25°C° 0 mm 2 mps 747 mmHg 35%
    23:00 +25°C° 0 mm 2 mps 747 mmHg 37%

    22 October, Monday

    Time Temperature Precipitation Wind Pressure Humidity
    00:00 +24°C° 0 mm 2 mps 746 mmHg 38%
    01:00 +24°C° 0 mm 2 mps 746 mmHg 39%
    02:00 +23°C° 0 mm 2 mps 746 mmHg 40%
    03:00 +23°C° 0 mm 2 mps 746 mmHg 41%
    04:00 +21°C° 0 mm 2 mps 746 mmHg 41%
    05:00 +21°C° 0 mm 2 mps 746 mmHg 41%
    06:00 +23°C° 0 mm 2 mps 747 mmHg 39%
    07:00 +25°C° 0 mm 2 mps 747 mmHg 37%
    08:00 +26°C° 0 mm 2 mps 747 mmHg 35%
    09:00 +28°C° 0 mm 2 mps 747 mmHg 31%
    10:00 +30°C° 0 mm 3 mps 747 mmHg 26%
    11:00 +33°C° 0 mm 4 mps 747 mmHg 22%
    12:00 +34°C° 0 mm 4 mps 747 mmHg 21%
    13:00 +34°C° 0 mm 5 mps 746 mmHg 19%
    14:00 +35°C° 0 mm 5 mps 745 mmHg 18%
    15:00 +33°C° 0 mm 4 mps 745 mmHg 23%
    16:00 +30°C° 0 mm 3 mps 745 mmHg 27%
    17:00 +28°C° 0 mm 2 mps 745 mmHg 31%
    18:00 +28°C° 0 mm 2 mps 745 mmHg 31%
    19:00 +27°C° 0 mm 2 mps 746 mmHg 31%
    20:00 +26°C° 0 mm 2 mps 746 mmHg 31%
    21:00 +26°C° 0 mm 2 mps 746 mmHg 32%
    22:00 +25°C° 0 mm 2 mps 746 mmHg 33%
    23:00 +24°C° 0 mm 2 mps 746 mmHg 35%

    23 October, Tuesday

    Time Temperature Precipitation Wind Pressure Humidity
    00:00 +24°C° 0 mm 2 mps 745 mmHg 36%
    01:00 +23°C° 0 mm 2 mps 745 mmHg 38%
    02:00 +23°C° 0 mm 1 mps 745 mmHg 39%
    03:00 +22°C° 0 mm 1 mps 745 mmHg 40%
    04:00 +22°C° 0 mm 1 mps 745 mmHg 40%
    05:00 +22°C° 0 mm 1 mps 745 mmHg 40%
    06:00 +23°C° 0 mm 1 mps 746 mmHg 38%
    07:00 +24°C° 0 mm 1 mps 747 mmHg 36%
    08:00 +25°C° 0 mm 1 mps 747 mmHg 34%
    09:00 +25°C° 0 mm 0 mps 747 mmHg 31%
    10:00 +28°C° 0 mm 0 mps 747 mmHg 27%
    11:00 +30°C° 0 mm 0 mps 747 mmHg 23%
    12:00 +32°C° 0 mm 1 mps 746 mmHg 22%
    13:00 +33°C° 0 mm 1 mps 746 mmHg 21%
    14:00 +33°C° 0 mm 1 mps 745 mmHg 20%
    15:00 +32°C° 0 mm 1 mps 745 mmHg 23%
    16:00 +30°C° 0 mm 1 mps 745 mmHg 26%
    17:00 +29°C° 0 mm 1 mps 745 mmHg 29%
    18:00 +28°C° 0 mm 1 mps 745 mmHg 30%
    19:00 +27°C° 0 mm 1 mps 746 mmHg 30%
    20:00 +26°C° 0 mm 2 mps 746 mmHg 31%
    21:00 +25°C° 0 mm 2 mps 746 mmHg 32%
    22:00 +25°C° 0 mm 2 mps 746 mmHg 34%
    23:00 +24°C° 0 mm 2 mps 746 mmHg 35%
    Show more